CAL164 RCKH-RKSI

Flight info

Callsign CAL164
Flight time 2h 22m
Altitude 35000
Route TNN2G TNN W4 ANLOT B1 APU L3 SALMI Y743 BOLUT Y741 ATOTI Y722 OLMEN OLMEN1Y
Aircraft B738/M-ABDE3FGJ3J4LOP1RVWY/LB2

Departure

Time 2026-05-04 12:14
Airport Kaohsiung International Airport (RCKH)

Arrival

Time 2026-05-04 14:36
Airport Incheon International Airport (RKSI)
Time Latitude Longitude Altitude Speed Heading
2026-05-04 11:33 22.57269 120.34135 30 ft 0 kts 92°
2026-05-04 11:50 22.57269 120.34133 30 ft 1 kts 92°
2026-05-04 11:50 22.57270 120.34117 30 ft 2 kts 91°
2026-05-04 11:50 22.57270 120.34101 30 ft 2 kts 91°
2026-05-04 11:51 22.57270 120.34095 30 ft 0 kts 91°
2026-05-04 11:52 22.57270 120.34115 30 ft 3 kts 91°
2026-05-04 11:52 22.57269 120.34135 30 ft 0 kts 92°
2026-05-04 12:02 22.57270 120.34111 30 ft 2 kts 92°
2026-05-04 12:03 22.57270 120.34095 30 ft 2 kts 91°
2026-05-04 12:03 22.57271 120.34079 30 ft 2 kts 91°
2026-05-04 12:03 22.57271 120.34063 30 ft 2 kts 94°
2026-05-04 12:03 22.57277 120.34050 30 ft 2 kts 154°
2026-05-04 12:04 22.57292 120.34049 29 ft 2 kts 190°
2026-05-04 12:04 22.57307 120.34050 29 ft 2 kts 179°
2026-05-04 12:04 22.57322 120.34050 28 ft 2 kts 183°
2026-05-04 12:04 22.57337 120.34051 28 ft 2 kts 181°
2026-05-04 12:05 22.57352 120.34051 28 ft 2 kts 182°
2026-05-04 12:05 22.57368 120.34051 28 ft 2 kts 182°
2026-05-04 12:05 22.57383 120.34051 28 ft 2 kts 173°
2026-05-04 12:05 22.57398 120.34049 28 ft 2 kts 168°
2026-05-04 12:06 22.57412 120.34045 28 ft 2 kts 166°
2026-05-04 12:06 22.57427 120.34042 28 ft 2 kts 175°
2026-05-04 12:06 22.57442 120.34042 28 ft 2 kts 181°
2026-05-04 12:06 22.57457 120.34042 28 ft 2 kts 182°
2026-05-04 12:07 22.57471 120.34042 28 ft 1 kts 181°
2026-05-04 12:07 22.57472 120.34042 28 ft 0 kts 181°
2026-05-04 12:09 22.57469 120.34042 28 ft 0 kts 181°
2026-05-04 12:09 22.57459 120.34042 28 ft 1 kts 181°
2026-05-04 12:09 22.57446 120.34042 28 ft 2 kts 182°
2026-05-04 12:10 22.57431 120.34041 28 ft 2 kts 187°
2026-05-04 12:10 22.57416 120.34028 28 ft 3 kts 243°
2026-05-04 12:10 22.57412 120.33989 28 ft 6 kts 269°
2026-05-04 12:10 22.57413 120.33935 28 ft 8 kts 272°
2026-05-04 12:11 22.57415 120.33865 28 ft 10 kts 272°
2026-05-04 12:11 22.57418 120.33780 28 ft 12 kts 272°
2026-05-04 12:11 22.57433 120.33684 28 ft 14 kts 303°
2026-05-04 12:11 22.57508 120.33606 28 ft 15 kts 318°
2026-05-04 12:12 22.57595 120.33521 28 ft 17 kts 317°
2026-05-04 12:12 22.57703 120.33498 28 ft 15 kts 359°
2026-05-04 12:12 22.57752 120.33521 28 ft 6 kts 94°
2026-05-04 12:12 22.57747 120.33607 28 ft 22 kts 91°
2026-05-04 12:13 22.57734 120.34080 28 ft 101 kts 91°
2026-05-04 12:14 22.52913 120.39597 3329 ft 242 kts 210°
2026-05-04 12:15 22.51580 120.38568 4319 ft 230 kts 218°
2026-05-04 12:15 22.50319 120.37515 5001 ft 234 kts 218°
2026-05-04 12:15 22.49016 120.36460 5726 ft 235 kts 218°
2026-05-04 12:15 22.47689 120.35406 6416 ft 236 kts 219°
2026-05-04 12:16 22.46491 120.34219 7095 ft 236 kts 233°
2026-05-04 12:16 22.45809 120.32655 7766 ft 233 kts 261°
2026-05-04 12:16 22.45824 120.30883 8255 ft 242 kts 281°
2026-05-04 12:16 22.46358 120.29134 8643 ft 256 kts 295°
2026-05-04 12:17 22.47209 120.27363 9169 ft 267 kts 296°
2026-05-04 12:17 22.48072 120.25556 9644 ft 279 kts 296°
2026-05-04 12:17 22.48983 120.23643 10210 ft 287 kts 295°
2026-05-04 12:17 22.49884 120.21709 10670 ft 300 kts 295°
2026-05-04 12:18 22.50923 120.19677 11076 ft 314 kts 302°
2026-05-04 12:18 22.52443 120.17870 11358 ft 335 kts 321°
2026-05-04 12:18 22.54575 120.16712 11684 ft 355 kts 341°
2026-05-04 12:18 22.57084 120.16345 12141 ft 369 kts 358°
2026-05-04 12:19 22.59644 120.16453 12743 ft 374 kts
2026-05-04 12:19 22.62301 120.16650 13388 ft 379 kts
2026-05-04 12:19 22.64927 120.16863 13994 ft 384 kts
2026-05-04 12:19 22.67607 120.17083 14631 ft 387 kts
2026-05-04 12:20 22.70296 120.17299 15246 ft 391 kts
2026-05-04 12:20 22.73005 120.17512 15850 ft 395 kts
2026-05-04 12:20 22.75785 120.17725 16461 ft 399 kts 360°
2026-05-04 12:20 22.78585 120.17938 17030 ft 404 kts 359°
2026-05-04 12:21 22.81423 120.18153 17589 ft 408 kts 359°
2026-05-04 12:21 22.84270 120.18367 18204 ft 411 kts 359°
2026-05-04 12:21 22.87140 120.18585 18762 ft 414 kts 359°
2026-05-04 12:21 22.90052 120.18806 19311 ft 418 kts 359°
2026-05-04 12:22 22.92948 120.19027 19860 ft 421 kts 359°
2026-05-04 12:22 22.95909 120.19251 20357 ft 425 kts 359°
2026-05-04 12:22 22.98878 120.19476 20887 ft 428 kts 359°
2026-05-04 12:22 23.01856 120.19703 21370 ft 431 kts 359°
2026-05-04 12:23 23.04867 120.19933 21900 ft 433 kts 358°
2026-05-04 12:23 23.07917 120.20165 22323 ft 438 kts 358°
2026-05-04 12:23 23.10969 120.20470 22879 ft 441 kts
2026-05-04 12:23 23.14011 120.20999 23288 ft 449 kts
2026-05-04 12:24 23.17078 120.21815 23694 ft 456 kts 11°
2026-05-04 12:24 23.20155 120.22819 24156 ft 459 kts 13°
2026-05-04 12:24 23.23218 120.23913 24637 ft 462 kts 13°
2026-05-04 12:24 23.26285 120.25044 24992 ft 467 kts 14°
2026-05-04 12:25 23.29348 120.26189 25476 ft 468 kts 14°
2026-05-04 12:25 23.32431 120.27340 25875 ft 471 kts 14°
2026-05-04 12:25 23.35591 120.28515 26243 ft 475 kts 14°
2026-05-04 12:25 23.38707 120.29669 26672 ft 477 kts 13°
2026-05-04 12:26 23.41855 120.30829 27048 ft 480 kts 13°
2026-05-04 12:26 23.45067 120.32008 27428 ft 483 kts 14°
2026-05-04 12:26 23.48263 120.33177 27833 ft 485 kts 13°
2026-05-04 12:26 23.51472 120.34348 28132 ft 490 kts 13°
2026-05-04 12:27 23.54726 120.35535 28584 ft 490 kts 13°
2026-05-04 12:27 23.57953 120.36713 28866 ft 494 kts 13°
2026-05-04 12:27 23.61219 120.37906 29248 ft 496 kts 13°
2026-05-04 12:27 23.64519 120.39113 29778 ft 494 kts 13°
2026-05-04 12:28 23.67754 120.40296 30407 ft 490 kts 13°
2026-05-04 12:28 23.70963 120.41468 30896 ft 489 kts 12°
2026-05-04 12:28 23.74179 120.42639 31328 ft 489 kts 12°
2026-05-04 12:28 23.77396 120.43811 31842 ft 486 kts 12°
2026-05-04 12:29 23.80621 120.44988 32340 ft 484 kts 12°
2026-05-04 12:29 23.83798 120.46146 32833 ft 481 kts 11°
2026-05-04 12:29 23.86888 120.47315 33284 ft 482 kts 13°
2026-05-04 12:29 23.90000 120.48730 33675 ft 486 kts 18°
2026-05-04 12:30 23.93040 120.50487 34073 ft 490 kts 24°
2026-05-04 12:30 23.95960 120.52531 34421 ft 494 kts 28°
2026-05-04 12:30 23.98652 120.54627 34817 ft 494 kts 30°
2026-05-04 12:30 24.01397 120.56870 35066 ft 496 kts 31°
2026-05-04 12:31 24.06670 120.61267 35079 ft 497 kts 31°
2026-05-04 12:31 24.12239 120.65898 35084 ft 497 kts 31°
2026-05-04 12:32 24.20494 120.72665 35090 ft 497 kts 31°
2026-05-04 12:33 24.26071 120.77202 35093 ft 497 kts 31°
2026-05-04 12:33 24.31618 120.81703 35110 ft 498 kts 31°
2026-05-04 12:34 24.37199 120.86230 35135 ft 501 kts 30°
2026-05-04 12:34 24.42808 120.90793 35148 ft 499 kts 31°
2026-05-04 12:35 24.48357 120.95312 35172 ft 496 kts 30°
2026-05-04 12:35 24.53938 120.99858 35187 ft 501 kts 30°
2026-05-04 12:36 24.59544 121.04420 35167 ft 499 kts 30°
2026-05-04 12:36 24.65118 121.08966 35156 ft 498 kts 30°
2026-05-04 12:37 24.70728 121.13545 35136 ft 501 kts 30°
2026-05-04 12:37 24.76091 121.17940 35127 ft 501 kts 30°
2026-05-04 12:38 24.81727 121.22567 35120 ft 501 kts 30°
2026-05-04 12:38 24.87352 121.27185 35122 ft 502 kts 30°
2026-05-04 12:39 24.92938 121.31777 35123 ft 502 kts 30°
2026-05-04 12:39 24.98506 121.36358 35123 ft 502 kts 30°
2026-05-04 12:40 25.04120 121.40979 35121 ft 503 kts 30°
2026-05-04 12:40 25.09745 121.45613 35131 ft 504 kts 30°
2026-05-04 12:41 25.15407 121.50225 35131 ft 502 kts 28°
2026-05-04 12:41 25.21354 121.54171 35140 ft 491 kts 18°
2026-05-04 12:42 25.27606 121.57200 35145 ft 489 kts 13°
2026-05-04 12:42 25.33916 121.59988 35138 ft 486 kts 13°
2026-05-04 12:43 25.40207 121.62799 35139 ft 488 kts 13°
2026-05-04 12:43 25.46486 121.65676 35142 ft 487 kts 14°
2026-05-04 12:44 25.52762 121.68596 35145 ft 492 kts 14°
2026-05-04 12:44 25.59114 121.71572 35144 ft 492 kts 14°
2026-05-04 12:45 25.65400 121.74528 35148 ft 489 kts 14°
2026-05-04 12:45 25.71675 121.77484 35149 ft 492 kts 14°
2026-05-04 12:46 25.77977 121.80509 35149 ft 494 kts 18°
2026-05-04 12:46 25.84070 121.84339 35150 ft 506 kts 26°
2026-05-04 12:47 25.89846 121.88834 35153 ft 509 kts 29°
2026-05-04 12:47 25.95519 121.93525 35156 ft 508 kts 29°
2026-05-04 12:48 26.01199 121.98236 35154 ft 506 kts 29°
2026-05-04 12:48 26.06895 122.02864 35154 ft 510 kts 28°
2026-05-04 12:49 26.12705 122.07426 35154 ft 508 kts 27°
2026-05-04 12:49 26.18495 122.11940 35154 ft 508 kts 27°
2026-05-04 12:50 26.24326 122.16491 35152 ft 510 kts 27°
2026-05-04 12:50 26.30142 122.21041 35153 ft 511 kts 27°
2026-05-04 12:51 26.35947 122.25593 35152 ft 513 kts 27°
2026-05-04 12:51 26.41757 122.30160 35152 ft 513 kts 28°
2026-05-04 12:52 26.47637 122.34792 35148 ft 512 kts 27°
2026-05-04 12:52 26.53379 122.39333 35151 ft 512 kts 28°
2026-05-04 12:53 26.59192 122.43931 35146 ft 513 kts 28°
2026-05-04 12:53 26.65018 122.48537 35153 ft 514 kts 28°
2026-05-04 12:54 26.70798 122.53118 35157 ft 514 kts 28°
2026-05-04 12:54 26.76648 122.57752 35147 ft 511 kts 28°
2026-05-04 12:55 26.82438 122.62347 35151 ft 511 kts 27°
2026-05-04 12:55 26.88246 122.66961 35146 ft 514 kts 28°
2026-05-04 12:56 26.94081 122.71606 35146 ft 514 kts 28°
2026-05-04 12:56 26.99940 122.76283 35146 ft 516 kts 28°
2026-05-04 12:57 27.05503 122.80725 35140 ft 516 kts 28°
2026-05-04 12:57 27.11645 122.85635 35140 ft 519 kts 28°
2026-05-04 12:58 27.17542 122.90355 35139 ft 519 kts 28°
2026-05-04 12:58 27.23379 122.95065 35140 ft 519 kts 30°
2026-05-04 12:59 27.29025 123.00191 35135 ft 523 kts 34°
2026-05-04 12:59 27.34548 123.05605 35139 ft 526 kts 35°
2026-05-04 13:00 27.40057 123.11041 35140 ft 527 kts 35°
2026-05-04 13:00 27.45627 123.16492 35141 ft 527 kts 34°
2026-05-04 13:01 27.51165 123.21861 35140 ft 524 kts 34°
2026-05-04 13:01 27.56750 123.27248 35143 ft 527 kts 33°
2026-05-04 13:02 27.62315 123.32615 35145 ft 528 kts 34°
2026-05-04 13:02 27.67903 123.37994 35147 ft 528 kts 33°
2026-05-04 13:03 27.73515 123.43418 35152 ft 531 kts 34°
2026-05-04 13:03 27.79130 123.48861 35151 ft 529 kts 34°
2026-05-04 13:04 27.84701 123.54266 35152 ft 530 kts 34°
2026-05-04 13:04 27.90335 123.59736 35153 ft 532 kts 34°
2026-05-04 13:05 27.95977 123.65220 35155 ft 529 kts 34°
2026-05-04 13:05 28.01564 123.70657 35155 ft 533 kts 34°
2026-05-04 13:06 28.07224 123.76174 35153 ft 534 kts 34°
2026-05-04 13:06 28.12854 123.81673 35155 ft 533 kts 34°
2026-05-04 13:07 28.18467 123.87161 35155 ft 533 kts 34°
2026-05-04 13:07 28.24139 123.92710 35158 ft 536 kts 34°
2026-05-04 13:08 28.29692 123.98387 35158 ft 538 kts 39°
2026-05-04 13:08 28.34745 124.04768 35156 ft 545 kts 46°
2026-05-04 13:09 28.39407 124.11629 35155 ft 547 kts 49°
2026-05-04 13:09 28.43933 124.18658 35159 ft 547 kts 50°
2026-05-04 13:10 28.48393 124.25635 35162 ft 548 kts 49°
2026-05-04 13:10 28.52938 124.32686 35156 ft 548 kts 49°
2026-05-04 13:11 28.57432 124.39620 35152 ft 547 kts 50°
2026-05-04 13:11 28.61977 124.46622 35154 ft 549 kts 49°
2026-05-04 13:12 28.66526 124.53640 35154 ft 548 kts 49°
2026-05-04 13:12 28.71045 124.60622 35154 ft 547 kts 48°
2026-05-04 13:13 28.75869 124.67265 35147 ft 540 kts 37°
2026-05-04 13:13 28.78756 124.69946 35154 ft 526 kts 25°
2026-05-04 13:13 28.81935 124.71970 35156 ft 517 kts 15°
2026-05-04 13:14 28.88532 124.74996 35156 ft 507 kts
2026-05-04 13:14 28.95250 124.77652 35153 ft 504 kts
2026-05-04 13:15 29.01932 124.80224 35157 ft 504 kts
2026-05-04 13:15 29.08620 124.82826 35150 ft 505 kts
2026-05-04 13:16 29.15312 124.85468 35152 ft 504 kts
2026-05-04 13:16 29.21971 124.88118 35152 ft 509 kts
2026-05-04 13:17 29.28705 124.90817 35149 ft 504 kts
2026-05-04 13:17 29.35412 124.93504 35155 ft 511 kts
2026-05-04 13:18 29.42060 124.96189 35153 ft 506 kts
2026-05-04 13:18 29.48735 124.98883 35152 ft 505 kts
2026-05-04 13:19 29.55362 125.01558 35150 ft 506 kts
2026-05-04 13:19 29.62006 125.04234 35152 ft 506 kts
2026-05-04 13:20 29.68657 125.06925 35155 ft 507 kts
2026-05-04 13:20 29.75357 125.09639 35148 ft 508 kts
2026-05-04 13:21 29.82012 125.12334 35152 ft 507 kts
2026-05-04 13:21 29.88658 125.15037 35153 ft 505 kts
2026-05-04 13:22 29.95346 125.17748 35156 ft 506 kts
2026-05-04 13:22 30.01973 125.20446 35151 ft 509 kts
2026-05-04 13:23 30.08657 125.23177 35156 ft 505 kts
2026-05-04 13:23 30.15303 125.25907 35155 ft 504 kts
2026-05-04 13:24 30.21962 125.28635 35154 ft 506 kts
2026-05-04 13:24 30.28628 125.31370 35153 ft 506 kts
2026-05-04 13:25 30.38614 125.35484 35152 ft 506 kts
2026-05-04 13:25 30.45239 125.38219 35158 ft 507 kts
2026-05-04 13:26 30.51865 125.40955 35151 ft 504 kts
2026-05-04 13:26 30.58504 125.43691 35156 ft 505 kts
2026-05-04 13:27 30.65176 125.46450 35156 ft 505 kts
2026-05-04 13:27 30.71765 125.49190 35157 ft 504 kts
2026-05-04 13:28 30.78459 125.51965 35150 ft 505 kts
2026-05-04 13:28 30.85035 125.54703 35156 ft 504 kts
2026-05-04 13:29 30.91670 125.57466 35152 ft 503 kts
2026-05-04 13:29 30.98257 125.60207 35154 ft 504 kts
2026-05-04 13:30 31.04895 125.62980 35155 ft 504 kts
2026-05-04 13:30 31.11467 125.65733 35152 ft 500 kts
2026-05-04 13:31 31.18053 125.68487 35160 ft 504 kts
2026-05-04 13:31 31.24623 125.71242 35152 ft 501 kts
2026-05-04 13:32 31.31220 125.74009 35154 ft 502 kts
2026-05-04 13:32 31.37823 125.76784 35158 ft 502 kts
2026-05-04 13:33 31.44364 125.79545 35154 ft 500 kts
2026-05-04 13:33 31.50916 125.82312 35153 ft 501 kts
2026-05-04 13:34 31.57505 125.85094 35156 ft 500 kts
2026-05-04 13:34 31.64050 125.87856 35155 ft 499 kts
2026-05-04 13:35 31.73892 125.91995 35154 ft 500 kts
2026-05-04 13:36 31.80462 125.94756 35154 ft 500 kts
2026-05-04 13:36 31.86982 125.97512 35158 ft 498 kts
2026-05-04 13:37 31.93550 126.00285 35153 ft 499 kts
2026-05-04 13:37 32.00048 126.03037 35152 ft 499 kts
2026-05-04 13:38 32.06594 126.05813 35161 ft 497 kts
2026-05-04 13:38 32.13052 126.08553 35151 ft 498 kts
2026-05-04 13:39 32.19627 126.11342 35157 ft 497 kts
2026-05-04 13:39 32.26128 126.14101 35158 ft 498 kts
2026-05-04 13:40 32.32648 126.16877 35150 ft 495 kts
2026-05-04 13:40 32.39145 126.19640 35160 ft 498 kts
2026-05-04 13:41 32.45625 126.22403 35154 ft 495 kts
2026-05-04 13:41 32.52111 126.25179 35162 ft 496 kts
2026-05-04 13:42 32.61858 126.29353 35159 ft 496 kts 10°
2026-05-04 13:42 32.68338 126.32143 35152 ft 495 kts 10°
2026-05-04 13:43 32.74822 126.34977 35160 ft 495 kts 10°
2026-05-04 13:43 32.81329 126.37775 35154 ft 494 kts 10°
2026-05-04 13:44 32.87752 126.40527 35156 ft 493 kts 10°
2026-05-04 13:44 32.94236 126.43310 35157 ft 494 kts 10°
2026-05-04 13:45 33.00737 126.46114 35155 ft 495 kts 10°
2026-05-04 13:45 33.07241 126.48920 35154 ft 496 kts 10°
2026-05-04 13:46 33.13708 126.51704 35149 ft 493 kts 10°
2026-05-04 13:46 33.20126 126.54467 35149 ft 493 kts 10°
2026-05-04 13:47 33.26609 126.57260 35148 ft 494 kts 11°
2026-05-04 13:47 33.33045 126.60041 35148 ft 490 kts 11°
2026-05-04 13:48 33.39439 126.62814 35151 ft 489 kts 10°
2026-05-04 13:48 33.45875 126.65610 35152 ft 489 kts 11°
2026-05-04 13:49 33.52297 126.68359 35145 ft 486 kts
2026-05-04 13:49 33.58785 126.70319 35144 ft 475 kts 359°
2026-05-04 13:50 33.62047 126.70827 34931 ft 469 kts 356°
2026-05-04 13:50 33.65272 126.71177 35072 ft 465 kts 354°
2026-05-04 13:50 33.71776 126.71729 35136 ft 468 kts 354°
2026-05-04 13:51 33.78277 126.72298 35138 ft 468 kts 355°
2026-05-04 13:51 33.84805 126.72929 35139 ft 465 kts 355°
2026-05-04 13:52 33.94555 126.73922 35161 ft 468 kts 356°
2026-05-04 13:53 34.01009 126.74593 35143 ft 463 kts 355°
2026-05-04 13:53 34.07486 126.75268 35140 ft 465 kts 356°
2026-05-04 13:54 34.17165 126.76283 35137 ft 464 kts 356°
2026-05-04 13:55 34.26823 126.77301 35146 ft 462 kts 356°
2026-05-04 13:55 34.36446 126.78320 35144 ft 462 kts 356°
2026-05-04 13:56 34.42906 126.79012 35141 ft 462 kts 356°
2026-05-04 13:57 34.52490 126.80033 35148 ft 461 kts 356°
2026-05-04 13:58 34.65279 126.81398 35151 ft 459 kts 357°
2026-05-04 13:58 34.74860 126.82428 35144 ft 459 kts 357°
2026-05-04 13:59 34.81234 126.83115 35136 ft 456 kts 357°
2026-05-04 14:00 34.90763 126.84137 35138 ft 457 kts 357°
2026-05-04 14:00 35.00270 126.85164 35143 ft 454 kts 357°
2026-05-04 14:01 35.06581 126.85847 35142 ft 455 kts 357°
2026-05-04 14:02 35.16019 126.86871 35146 ft 452 kts 358°
2026-05-04 14:02 35.22319 126.87555 35141 ft 454 kts 358°
2026-05-04 14:03 35.28649 126.88239 35148 ft 454 kts 357°
2026-05-04 14:03 35.34963 126.88927 35139 ft 452 kts 358°
2026-05-04 14:04 35.44393 126.89955 35140 ft 452 kts 358°
2026-05-04 14:04 35.50680 126.90642 35136 ft 450 kts 358°
2026-05-04 14:05 35.60052 126.91671 35128 ft 447 kts 358°
2026-05-04 14:06 35.66292 126.92352 35135 ft 449 kts 358°
2026-05-04 14:06 35.72517 126.93033 35139 ft 448 kts 358°
2026-05-04 14:07 35.78743 126.93718 35145 ft 448 kts 358°
2026-05-04 14:07 35.81873 126.94064 35036 ft 443 kts 358°
2026-05-04 14:07 35.84907 126.94404 34658 ft 439 kts 358°
2026-05-04 14:07 35.87927 126.94741 34268 ft 435 kts 358°
2026-05-04 14:08 35.90974 126.95078 33760 ft 434 kts 359°
2026-05-04 14:08 35.93971 126.95409 33247 ft 432 kts 359°
2026-05-04 14:08 35.96928 126.95734 32726 ft 431 kts 359°
2026-05-04 14:08 35.99920 126.96064 32188 ft 429 kts 359°
2026-05-04 14:09 36.05873 126.96723 31104 ft 425 kts 359°
2026-05-04 14:09 36.08790 126.97047 30562 ft 423 kts 360°
2026-05-04 14:10 36.14531 126.97688 29430 ft 403 kts
2026-05-04 14:10 36.17271 126.97998 28945 ft 392 kts
2026-05-04 14:10 36.20005 126.98303 28433 ft 388 kts
2026-05-04 14:10 36.22683 126.98600 27927 ft 385 kts
2026-05-04 14:11 36.25329 126.98891 27424 ft 381 kts
2026-05-04 14:11 36.30583 126.99474 26434 ft 375 kts
2026-05-04 14:11 36.33181 126.99762 25929 ft 371 kts
2026-05-04 14:12 36.35724 127.00046 25450 ft 368 kts
2026-05-04 14:12 36.38318 127.00322 24949 ft 364 kts
2026-05-04 14:12 36.43317 127.00359 23988 ft 357 kts 356°
2026-05-04 14:13 36.45776 127.00237 23507 ft 354 kts 355°
2026-05-04 14:13 36.48236 127.00104 23036 ft 350 kts 356°
2026-05-04 14:13 36.50647 126.99981 22571 ft 347 kts 356°
2026-05-04 14:13 36.53072 126.99869 22105 ft 344 kts 356°
2026-05-04 14:14 36.55461 126.99767 21646 ft 341 kts 357°
2026-05-04 14:14 36.60144 126.99586 20735 ft 334 kts 358°
2026-05-04 14:14 36.62462 126.99502 20283 ft 331 kts 358°
2026-05-04 14:15 36.67028 126.99338 19396 ft 325 kts 358°
2026-05-04 14:15 36.71521 126.99150 18499 ft 319 kts 356°
2026-05-04 14:16 36.75766 126.97862 17635 ft 315 kts 328°
2026-05-04 14:16 36.77349 126.95988 17222 ft 315 kts 306°
2026-05-04 14:17 36.79075 126.91081 16617 ft 310 kts 292°
2026-05-04 14:17 36.79771 126.88548 16365 ft 314 kts 291°
2026-05-04 14:17 36.81210 126.83303 15767 ft 321 kts 291°
2026-05-04 14:18 36.81945 126.80657 15475 ft 325 kts 291°
2026-05-04 14:18 36.83456 126.75277 14881 ft 333 kts 291°
2026-05-04 14:19 36.84981 126.69891 14472 ft 317 kts 291°
2026-05-04 14:19 36.85711 126.67316 14222 ft 312 kts 291°
2026-05-04 14:19 36.86431 126.64768 13976 ft 310 kts 291°
2026-05-04 14:19 36.87152 126.62216 13724 ft 311 kts 291°
2026-05-04 14:20 36.87862 126.59709 13478 ft 309 kts 291°
2026-05-04 14:20 36.88680 126.57250 13224 ft 305 kts 303°
2026-05-04 14:20 36.90106 126.55296 12977 ft 302 kts 327°
2026-05-04 14:21 36.94106 126.54390 12487 ft 299 kts 15°
2026-05-04 14:21 36.95950 126.55538 12244 ft 300 kts 35°
2026-05-04 14:21 36.97577 126.57201 12005 ft 300 kts 40°
2026-05-04 14:21 36.99125 126.58960 11758 ft 299 kts 41°
2026-05-04 14:22 37.00642 126.60720 11513 ft 297 kts 41°
2026-05-04 14:22 37.02158 126.62486 11263 ft 296 kts 41°
2026-05-04 14:22 37.03651 126.64233 11019 ft 295 kts 41°
2026-05-04 14:22 37.05154 126.65999 10763 ft 293 kts 41°
2026-05-04 14:23 37.08109 126.69488 10286 ft 283 kts 41°
2026-05-04 14:23 37.09510 126.71150 10069 ft 273 kts 41°
2026-05-04 14:23 37.10877 126.72777 9669 ft 272 kts 41°
2026-05-04 14:24 37.12259 126.74425 9339 ft 270 kts 41°
2026-05-04 14:24 37.13620 126.76052 8915 ft 269 kts 41°
2026-05-04 14:24 37.14964 126.77653 8582 ft 267 kts 41°
2026-05-04 14:24 37.16283 126.79263 8223 ft 266 kts 46°
2026-05-04 14:25 37.17217 126.81284 7783 ft 271 kts 72°
2026-05-04 14:25 37.16518 126.85792 7040 ft 275 kts 130°
2026-05-04 14:25 37.14993 126.87222 7012 ft 275 kts 159°
2026-05-04 14:26 37.13123 126.87885 7012 ft 279 kts 169°
2026-05-04 14:26 37.11219 126.88329 7003 ft 277 kts 172°
2026-05-04 14:26 37.09325 126.88322 6997 ft 274 kts 196°
2026-05-04 14:26 37.07633 126.87299 7008 ft 270 kts 223°
2026-05-04 14:27 37.06488 126.85493 7008 ft 264 kts 249°
2026-05-04 14:27 37.06128 126.83264 7008 ft 258 kts 276°
2026-05-04 14:27 37.06604 126.81141 7006 ft 256 kts 303°
2026-05-04 14:27 37.07767 126.79470 6924 ft 255 kts 319°
2026-05-04 14:28 37.09110 126.78031 6665 ft 253 kts 321°
2026-05-04 14:28 37.10457 126.76607 6411 ft 250 kts 320°
2026-05-04 14:28 37.11777 126.75163 6175 ft 250 kts 319°
2026-05-04 14:28 37.13067 126.73719 5923 ft 251 kts 318°
2026-05-04 14:29 37.15638 126.70815 5448 ft 249 kts 318°
2026-05-04 14:29 37.18214 126.67904 5011 ft 244 kts 318°
2026-05-04 14:30 37.19468 126.66487 4992 ft 241 kts 318°
2026-05-04 14:30 37.20704 126.65091 5007 ft 232 kts 318°
2026-05-04 14:30 37.23035 126.62492 5001 ft 218 kts 321°
2026-05-04 14:31 37.24245 126.61333 4962 ft 216 kts 323°
2026-05-04 14:31 37.26666 126.59187 4364 ft 213 kts 324°
2026-05-04 14:32 37.29082 126.57063 3755 ft 209 kts 323°
2026-05-04 14:32 37.30266 126.56019 3457 ft 208 kts 323°
2026-05-04 14:32 37.31443 126.54981 3169 ft 203 kts 323°
2026-05-04 14:32 37.32578 126.53982 2869 ft 189 kts 323°
2026-05-04 14:33 37.33617 126.53067 2619 ft 180 kts 322°
2026-05-04 14:33 37.34635 126.52165 2365 ft 177 kts 322°
2026-05-04 14:33 37.35638 126.51279 2118 ft 177 kts 322°
2026-05-04 14:33 37.36654 126.50382 1888 ft 171 kts 322°
2026-05-04 14:34 37.37589 126.49560 1616 ft 160 kts 322°
2026-05-04 14:34 37.38490 126.48762 1454 ft 155 kts 322°
2026-05-04 14:34 37.39342 126.48007 1229 ft 141 kts 322°
2026-05-04 14:34 37.40145 126.47297 1018 ft 140 kts 323°
2026-05-04 14:35 37.40955 126.46592 827 ft 140 kts 324°
2026-05-04 14:35 37.41772 126.45905 657 ft 141 kts 323°
2026-05-04 14:35 37.42578 126.45189 479 ft 138 kts 322°
2026-05-04 14:35 37.43365 126.44473 282 ft 138 kts 323°
2026-05-04 14:36 37.44162 126.43765 94 ft 138 kts 323°
2026-05-04 14:36 37.44904 126.43099 28 ft 115 kts 324°
2026-05-04 14:36 37.45426 126.42636 28 ft 70 kts 324°
2026-05-04 14:36 37.45750 126.42445 28 ft 32 kts 349°
2026-05-04 14:37 37.45937 126.42417 28 ft 16 kts 349°
2026-05-04 14:37 37.46028 126.42368 28 ft 11 kts 330°
2026-05-04 14:37 37.46067 126.42388 28 ft 5 kts 54°
2026-05-04 14:37 37.46088 126.42426 28 ft 4 kts 55°
2026-05-04 14:38 37.46114 126.42472 28 ft 8 kts 55°
2026-05-04 14:38 37.46158 126.42547 28 ft 12 kts 54°
2026-05-04 14:38 37.46212 126.42642 28 ft 11 kts 55°
2026-05-04 14:38 37.46246 126.42712 28 ft 8 kts 79°
2026-05-04 14:39 37.46218 126.42763 28 ft 7 kts 146°
2026-05-04 14:39 37.46179 126.42796 28 ft 6 kts 146°
2026-05-04 14:39 37.46145 126.42825 28 ft 6 kts 145°
2026-05-04 14:40 37.46029 126.42928 28 ft 14 kts 144°
2026-05-04 14:40 37.45937 126.43011 28 ft 17 kts 145°
2026-05-04 14:40 37.45879 126.43079 28 ft 9 kts 111°
2026-05-04 14:40 37.45898 126.43150 28 ft 8 kts 57°
2026-05-04 14:41 37.45919 126.43201 28 ft 3 kts 132°
2026-05-04 14:41 37.45889 126.43212 28 ft 4 kts 171°
2026-05-04 14:41 37.45864 126.43277 28 ft 5 kts 70°
2026-05-04 14:42 37.45932 126.43402 28 ft 11 kts 55°
2026-05-04 14:42 37.45982 126.43489 28 ft 12 kts 54°
2026-05-04 14:42 37.46030 126.43575 28 ft 11 kts 55°
2026-05-04 14:43 37.46075 126.43656 28 ft 10 kts 55°
2026-05-04 14:43 37.46124 126.43722 28 ft 9 kts 23°
2026-05-04 14:43 37.46180 126.43697 28 ft 8 kts 326°
2026-05-04 14:43 37.46228 126.43656 28 ft 7 kts 325°
2026-05-04 14:44 37.46270 126.43619 28 ft 6 kts 325°
2026-05-04 14:44 37.46307 126.43587 28 ft 6 kts 326°
2026-05-04 14:44 37.46342 126.43556 28 ft 6 kts 326°
2026-05-04 14:44 37.46379 126.43524 28 ft 6 kts 325°
2026-05-04 14:45 37.46419 126.43488 28 ft 7 kts 325°
2026-05-04 14:45 37.46463 126.43449 28 ft 7 kts 324°
2026-05-04 14:45 37.46502 126.43401 28 ft 7 kts 300°
2026-05-04 14:45 37.46521 126.43347 28 ft 3 kts 292°
2026-05-04 14:46 37.46523 126.43341 28 ft 0 kts 292°